This is the latest recevied weather packets stored in our database for station/object K4HOG. If no packets are shown the sender has not sent any weather packets the latest 10 day(s).
| Time | Temp. | Humidity | Pressure | Rain* | Wind** | Luminosity | Snow |
|---|---|---|---|---|---|---|---|
| 1777769045 | 21.67° C | 98% | 1011.1 hPa | 0 mm | - | 0 W/m² | - |
| 1777768743 | 21.67° C | 98% | 1011.1 hPa | 0 mm | - | 0 W/m² | - |
| 1777768440 | 21.67° C | 98% | 1011.1 hPa | 0 mm | - | 0 W/m² | - |
| 1777768137 | 21.67° C | 98% | 1011 hPa | 0 mm | - | 0 W/m² | - |
| 1777767834 | 21.67° C | 98% | 1010.9 hPa | 0 mm | - | 0 W/m² | - |
| 1777767530 | 21.67° C | 98% | 1010.9 hPa | 0 mm | - | 0 W/m² | - |
| 1777767227 | 21.67° C | 98% | 1010.9 hPa | 0 mm | - | 0 W/m² | - |
| 1777766924 | 21.67° C | 98% | 1010.7 hPa | 0 mm | - | 1 W/m² | - |
| 1777766621 | 21.67° C | 98% | 1010.7 hPa | 0 mm | - | 2 W/m² | - |
| 1777766318 | 21.67° C | 98% | 1010.5 hPa | 0 mm | - | 3 W/m² | - |
| 1777766015 | 21.67° C | 98% | 1010.4 hPa | 0 mm | - | 6 W/m² | - |
| 1777765712 | 21.67° C | 98% | 1010.5 hPa | 0 mm | - | 9 W/m² | - |
| 1777765409 | 21.67° C | 97% | 1010.7 hPa | 0 mm | - | 13 W/m² | - |
| 1777765106 | 21.67° C | 97% | 1010.5 hPa | 0 mm | - | 20 W/m² | - |
| 1777764802 | 21.67° C | 97% | 1010.4 hPa | 0 mm | - | 25 W/m² | - |
| 1777764499 | 21.67° C | 97% | 1010.4 hPa | 0 mm | - | 32 W/m² | - |
| 1777764195 | 21.67° C | 97% | 1010 hPa | 0 mm | - | 38 W/m² | - |
| 1777763892 | 21.67° C | 97% | 1010.1 hPa | 0 mm | - | 41 W/m² | - |
| 1777763590 | 21.67° C | 97% | 1010.1 hPa | 0 mm | - | 49 W/m² | - |
| 1777763288 | 21.67° C | 97% | 1009.9 hPa | 0 mm | - | 59 W/m² | - |
| 1777762986 | 21.67° C | 97% | 1010.1 hPa | 0 mm | - | 53 W/m² | - |
| 1777762682 | 21.67° C | 97% | 1009.9 hPa | 0 mm | - | 62 W/m² | - |
| 1777762379 | 21.67° C | 97% | 1010 hPa | 0 mm | - | 68 W/m² | - |
| 1777762075 | 21.67° C | 98% | 1010.1 hPa | 0 mm | - | 79 W/m² | - |
| 1777761772 | 21.67° C | 98% | 1010.2 hPa | 0 mm | - | 67 W/m² | - |
* Rain latest hour (hover to see other rain measurements)
** Current wind speed in m/s (hover to see current wind gust speed)